Flag for U.S.A. Weather past 2 weeks in Jersey City, New Jersey, U.S.A.

Now
55 °F

Partly sunny.


Feels Like: 52 °F
Forecast: 37 / 53 °F
Wind: 9 mph from Southwest

Location: Newark International Airport

Current Time: Dec 27, 2014 at 3:15:09 PM

Latest Report: Dec 27, 2014 at 2:51 PM


Visibility: 10 mi

Pressure: 30.15 "Hg

Humidity: 45%

Dew point: 34 °F

Location of Jersey CityLocation

Historic Weather in Jersey City — Graph

°F

Jersey City temperature yesterday

Maximum temperature yesterday: 51 °F (at 1:51 PM)
Minimum temperature yesterday: 34 °F (at 3:51 AM)
Average temperature yesterday: 42 °F

Past Weeks' High & Low Weather Summary

 TemperatureHumidityPressure
High64 °F (Dec 25, 2:51 AM)100% (Dec 16, 7:57 PM)30.34 "Hg (Dec 16, 7:57 PM)
Low31 °F (Dec 20, 4:51 AM)40% (Dec 25, 1:51 PM)29.50 "Hg (Dec 25, 3:51 AM)
Average41 °F72%30.05 "Hg
* Reported Dec 12 1:51 PM — Dec 27 1:51 PM, Jersey City, Weather by CustomWeather, © 2014

Note: Actual official high and low records may vary slightly from our data, if they occured in-between our weather recording intervals... More about our weather records

Advertising

Jersey City weather history for previous 24 hours

 ConditionsComfort  
Time TempWeatherWind HumidityBarometerVisibility
1:51 PM
Dec 27
56 °FScattered clouds.7 mph44%30.18 "Hg10 mi
12:51 PM56 °FPartly sunny.5 mph42%30.19 "Hg10 mi
11:51 AM55 °FScattered clouds.3 mph44%30.23 "Hg10 mi
10:51 AM51 °FScattered clouds.No wind50%30.25 "Hg10 mi
9:51 AM47 °FScattered clouds.3 mph61%30.27 "Hg10 mi
8:51 AM41 °FScattered clouds.No wind74%30.26 "Hg10 mi
7:51 AM36 °FBroken clouds.3 mph79%30.26 "Hg10 mi
6:51 AM37 °FPassing clouds.3 mph79%30.25 "Hg10 mi
5:51 AM36 °FPassing clouds.5 mph82%30.23 "Hg10 mi
4:51 AM35 °FPassing clouds.6 mph82%30.21 "Hg10 mi
3:51 AM37 °FPassing clouds.No wind76%30.20 "Hg10 mi
2:51 AM39 °FPassing clouds.No wind70%30.21 "Hg10 mi
1:51 AM36 °FPassing clouds.6 mph75%30.22 "Hg10 mi
12:51 AM38 °FPassing clouds.5 mph73%30.21 "Hg10 mi
11:51 PM
Dec 26
39 °FPassing clouds.5 mph70%30.22 "Hg10 mi
10:51 PM38 °FPassing clouds.6 mph73%30.22 "Hg10 mi
9:51 PM39 °FPassing clouds.6 mph67%30.23 "Hg10 mi
8:51 PM42 °FPassing clouds.7 mph62%30.23 "Hg10 mi
7:51 PM43 °FPassing clouds.8 mph60%30.23 "Hg10 mi
6:51 PM44 °FPassing clouds.9 mph58%30.22 "Hg10 mi
5:51 PM46 °FPassing clouds.9 mph54%30.22 "Hg10 mi
4:51 PM46 °FPassing clouds.10 mph51%30.20 "Hg10 mi
3:51 PM49 °FScattered clouds.7 mph44%30.19 "Hg10 mi
Weather by CustomWeather, © 2014

See weather overviewHow to use our weather pages